This is the latest recevied weather packets stored in our database for station/object N7BTW-13. If no packets are shown the sender has not sent any weather packets the latest 10 day(s).
| Time | Temp. | Humidity | Pressure | Rain* | Wind** | Luminosity | Snow |
|---|---|---|---|---|---|---|---|
| 1777762207 | 21.67° C | 70% | 1013 hPa | 0 mm | - | - | - |
| 1777761606 | 21.11° C | 68% | 1013.2 hPa | 0 mm | - | - | - |
| 1777761006 | 21.67° C | 68% | 1013.4 hPa | 0 mm | - | - | - |
| 1777760407 | 21.67° C | 65% | 1013.6 hPa | 0 mm | - | - | - |
| 1777759807 | 22.78° C | 64% | 1013.7 hPa | 0 mm | - | - | - |
| 1777759206 | 22.78° C | 65% | 1013.9 hPa | 0 mm | - | - | - |
| 1777758607 | 21.67° C | 67% | 1014 hPa | 0 mm | - | - | - |
| 1777758007 | 20.56° C | 68% | 1014 hPa | 0 mm | - | - | - |
| 1777757407 | 20.56° C | 70% | 1014.3 hPa | 0 mm | - | - | - |
| 1777756807 | 21.11° C | 68% | 1014.4 hPa | 0 mm | - | - | - |
| 1777756207 | 20.56° C | 69% | 1014.6 hPa | 0 mm | - | - | - |
| 1777755606 | 20° C | 69% | 1014.7 hPa | 0 mm | - | - | - |
| 1777755007 | 19.44° C | 70% | 1014.9 hPa | 0 mm | - | - | - |
| 1777754407 | 18.89° C | 71% | 1015 hPa | 0 mm | - | - | - |
| 1777753805 | 18.89° C | 71% | 1015.2 hPa | 0 mm | - | - | - |
| 1777753206 | 20° C | 71% | 1015.2 hPa | 0 mm | - | - | - |
| 1777752607 | 18.89° C | 72% | 1015.2 hPa | 0 mm | - | - | - |
| 1777752007 | 18.89° C | 75% | 1015.4 hPa | 0 mm | - | - | - |
| 1777751406 | 17.78° C | 76% | 1015.8 hPa | 0 mm | - | - | - |
| 1777750808 | 16.67° C | 79% | 1015.9 hPa | 0 mm | - | - | - |
| 1777750207 | 16.67° C | 80% | 1016 hPa | 0 mm | - | - | - |
| 1777749608 | 15.56° C | 84% | 1016 hPa | 0 mm | - | - | - |
| 1777749005 | 13.89° C | 86% | 1016.4 hPa | 0 mm | - | - | - |
| 1777748408 | 13.33° C | 87% | 1016.6 hPa | 0 mm | - | - | - |
| 1777747810 | 13.89° C | 88% | 1016.6 hPa | 0 mm | - | - | - |
* Rain latest hour (hover to see other rain measurements)
** Current wind speed in m/s (hover to see current wind gust speed)